Location: Newark
(50.4348°N, 30.5552°E)
Time: 16:18:13
(UTC+00:00)

Tiros 1 despin weight - Pass Details

Date: 02 February 2020
Orbit: 594 x 642 km, 48.2° (Epoch: 16 February)

Event Time Altitude Azimuth Distance (km) Brightness Sun altitude
Rises 06:50:10 0° 230° (SW) 2,832 ? 9.5°
Reaches altitude 10° 06:52:33 10° 222° (SW) 1,938 ? 9.7°
Maximum altitude 06:56:38 36° 155° (SSE) 959 ? 10.2°
Drops below altitude 10° 07:00:46 10° 89° (E) 1,969 ? 10.7°
Sets 07:03:13 0° 81° (E) 2,885 ? 11.0°
